WetterOnline ( http://www.wetteronline.de )

Wetter aktuell Denkendorf

Aktuelles Wetter: Roth (386m)

6-stündlich | Neueste Meldungen
Ortszeit Temperatur Wetter
Sa, 21.04. 8:00 11.5° C leicht bewölkt
Sa, 21.04. 2:00 11.8° C wolkig
Fr, 20.04. 20:00 24.0° C wolkig
Fr, 20.04. 14:00 25.4° C wolkig
Fr, 20.04. 8:00 9.3° C wolkenlos
Fr, 20.04. 2:00 9.4° C wolkig
Do, 19.04. 20:00 20.2° C leicht bewölkt
Do, 19.04. 14:00 23.6° C fast wolkenlos
Ortszeit Temperatur Wetter
Sa, 21.04. 9:30 16.8° C fast wolkenlos
Sa, 21.04. 9:20 16.8° C fast wolkenlos
Sa, 21.04. 9:10 16.4° C leicht bewölkt
Sa, 21.04. 9:00 15.1° C fast wolkenlos
Sa, 21.04. 8:50 15.1° C fast wolkenlos
Sa, 21.04. 8:40 14.6° C leicht bewölkt
Sa, 21.04. 8:30 13.1° C fast wolkenlos
Sa, 21.04. 8:00 11.5° C leicht bewölkt
Sa, 21.04. 7:30 9.7° C wolkenlos
Sa, 21.04. 7:00 8.5° C fast wolkenlos
Sa, 21.04. 6:30 8.4° C leicht bewölkt
Ortszeit Relative Feuchte Sichtweite
Sa, 21.04. 8:00 64% 25 km
Sa, 21.04. 2:00 66% 30 km
Fr, 20.04. 20:00 31% 55 km
Fr, 20.04. 14:00 34% 29 km
Fr, 20.04. 8:00 71% 15 km
Fr, 20.04. 2:00 73% 25 km
Do, 19.04. 20:00 35% 50 km
Do, 19.04. 14:00 22% 30 km
Ortszeit Relative Feuchte Sichtweite
Sa, 21.04. 9:30 58% 17 km
Sa, 21.04. 9:20 58% -
Sa, 21.04. 9:10 57% -
Sa, 21.04. 9:00 59% 19 km
Sa, 21.04. 8:50 59% -
Sa, 21.04. 8:40 61% -
Sa, 21.04. 8:30 64% 25 km
Sa, 21.04. 8:00 64% 25 km
Sa, 21.04. 7:30 73% 28 km
Sa, 21.04. 7:00 74% 29 km
Sa, 21.04. 6:30 77% 30 km
Ortszeit Niederschlagsmenge Niederschlagsart
Sa, 21.04. 8:00 0.0 l/m2 in 12 Std. -
Sa, 21.04. 2:00 0.0 l/m2 in 6 Std. -
Fr, 20.04. 20:00 0.0 l/m2 in 12 Std. -
Fr, 20.04. 14:00 0.0 l/m2 in 6 Std. -
Fr, 20.04. 8:00 0.0 l/m2 in 12 Std. -
Fr, 20.04. 2:00 0.0 l/m2 in 6 Std. -
Do, 19.04. 20:00 0.0 l/m2 in 12 Std. -
Do, 19.04. 14:00 0.0 l/m2 in 6 Std. -
Ortszeit Niederschlagsmenge Niederschlagsart
Sa, 21.04. 9:30 0.0 l/m2 in 1 Std. -
Sa, 21.04. 9:20 keine Meldung -
Sa, 21.04. 9:10 keine Meldung -
Sa, 21.04. 9:00 0.0 l/m2 in 1 Std. -
Sa, 21.04. 8:50 keine Meldung -
Sa, 21.04. 8:40 keine Meldung -
Sa, 21.04. 8:30 0.0 l/m2 in 1 Std. -
Sa, 21.04. 8:00 0.0 l/m2 in 1 Std. -
Sa, 21.04. 7:30 0.0 l/m2 in 1 Std. -
Sa, 21.04. 7:00 0.0 l/m2 in 1 Std. -
Sa, 21.04. 6:30 0.0 l/m2 in 1 Std. -
Ortszeit Stärke Spitze Richtung
km/h Bft. km/h Grad Sektor
Sa, 21.04. 8:00 0 0 7 - -
Sa, 21.04. 2:00 4 1 11 180° S
Fr, 20.04. 20:00 6 1 30 140° SO
Fr, 20.04. 14:00 13 3 33 110° O
Fr, 20.04. 8:00 0 0 4 - -
Fr, 20.04. 2:00 0 0 7 - -
Do, 19.04. 20:00 4 1 29 100° O
Do, 19.04. 14:00 13 3 39 120° SO
Ortszeit Stärke Spitze Richtung
km/h Bft. km/h Grad Sektor
Sa, 21.04. 9:30 7 2 7 210° SW
Sa, 21.04. 9:20 7 2 - 210° SW
Sa, 21.04. 9:10 7 2 - 210° SW
Sa, 21.04. 9:00 6 1 9 220° SW
Sa, 21.04. 8:50 6 1 - 220° SW
Sa, 21.04. 8:40 4 1 - 230° SW
Sa, 21.04. 8:30 4 1 7 210° SW
Sa, 21.04. 8:00 0 0 4 - -
Sa, 21.04. 7:30 2 1 4 130° SO
Sa, 21.04. 7:00 4 1 4 180° S
Sa, 21.04. 6:30 2 1 4 140° SO
Ortszeit Untergrenze Bedeckung Gattung
total tief tief mittel hoch
Sa, 21.04. 8:00 3000 m 2/8 2/8 - - -
Sa, 21.04. 2:00 9000 m 7/8 0/8 - - -
Fr, 20.04. 20:00 9000 m 8/8 0/8 - - -
Fr, 20.04. 14:00 12000 m 7/8 0/8 - - -
Fr, 20.04. 8:00 10500 m 0/8 0/8 - - -
Fr, 20.04. 2:00 9000 m 8/8 0/8 - - -
Do, 19.04. 20:00 3600 m 4/8 1/8 - - -
Do, 19.04. 14:00 3600 m 1/8 1/8 - - -
Ortszeit Bedeckungsgrad in Achtel und Wolkenuntergrenze
Sa, 21.04. 9:30 1(3300m)
Sa, 21.04. 9:20 1(3300m)
Sa, 21.04. 9:10 2(3300m)
Sa, 21.04. 9:00 1(3300m)
Sa, 21.04. 8:50 1(3300m)
Sa, 21.04. 8:40 2(3300m)
Sa, 21.04. 8:30 1(3300m)
Sa, 21.04. 8:00 2(3000m)
Sa, 21.04. 7:30 keine Wolken
Sa, 21.04. 7:00 1(3300m)
Sa, 21.04. 6:30 1(3300m) 9 9
Ortszeit Luftdruck NN (hPa) Tendenz (hPa in 3 Std.)
Sa, 21.04. 8:00 1021 + 0,3
Sa, 21.04. 2:00 1021 - 0,6
Fr, 20.04. 20:00 1020 - 0,9
Fr, 20.04. 14:00 1022 - 1,1
Fr, 20.04. 8:00 1027 - 0,2
Fr, 20.04. 2:00 1028 - 0,6
Do, 19.04. 20:00 1026 - 0,9
Do, 19.04. 14:00 1028 - 0,8
Ortszeit Luftdruck NN (hPa) Tendenz (hPa in 3 Std.)
Sa, 21.04. 9:30 1020 + 0,4
Sa, 21.04. 9:20 1020 keine Meldung
Sa, 21.04. 9:10 1020 keine Meldung
Sa, 21.04. 9:00 1020 + 0,4
Sa, 21.04. 8:50 1020 keine Meldung
Sa, 21.04. 8:40 1020 keine Meldung
Sa, 21.04. 8:30 1020 + 0,3
Sa, 21.04. 8:00 1021 + 0,3
Sa, 21.04. 7:30 1021 + 0,1
Sa, 21.04. 7:00 1021 - 0,1
Sa, 21.04. 6:30 1021 - 0,4
Ortszeit Schneehöhe (cm)
Sa, 21.04. 8:00 0
Sa, 21.04. 2:00 0
Fr, 20.04. 20:00 0
Fr, 20.04. 14:00 0
Fr, 20.04. 8:00 0
Fr, 20.04. 2:00 0
Do, 19.04. 20:00 0
Do, 19.04. 14:00 0
Ortszeit Schneehöhe (cm)
Sa, 21.04. 9:30 0
Sa, 21.04. 9:20 0
Sa, 21.04. 9:10 0
Sa, 21.04. 9:00 0
Sa, 21.04. 8:50 0
Sa, 21.04. 8:40 0
Sa, 21.04. 8:30 0
Sa, 21.04. 8:00 0
Sa, 21.04. 7:30 0
Sa, 21.04. 7:00 0
Sa, 21.04. 6:30 0
Link zu dieser Seite / Seite empfehlen

Das Wetter in ...